Location: Asheville, NC
(35.6000°N, 82.5500°W)
Time: 16:19:47
(UTC-05:00)

CUTE 1.7 + AOD 2 - Pass Details

Date: 13 February 2018
Orbit: 594 x 614 km, 97.6° (Epoch: 20 February)

Event Time Altitude Azimuth Distance (km) Brightness Sun altitude
Rises 18:56:52 0° 178° (S) 2,832 ? -10.1°
Reaches altitude 10° 18:59:05 10° 183° (S) 1,931 ? -10.5°
Maximum altitude 19:03:10 52° 260° (W) 741 ? -11.4°
Drops below altitude 10° 19:07:17 10° 338° (NNW) 1,934 ? -12.2°
Sets 19:09:30 0° 343° (NNW) 2,838 ? -12.6°
